Regional Weather Roundup
Issued by NWS

Home | Current Version | Previous Version | Graphics & Text | Print | Product List | Glossary On
Versions: 1 2 3 4 5 6 7 8 9 10 11 12 13 14 15 16 17 18 19 20 21 22 23 24 25 26 27 28 29 30 31 32 33 34 35 36 37 38 39 40 41 42 43 44 45 46 47 48 49 50
000
ASUS45 KSLC 260410
RWRUT

UTAH REGIONAL WEATHER ROUNDUP
NATIONAL WEATHER SERVICE SALT LAKE CITY UT
1000 PM MDT WED APR 25 2018

UTZ001>011-023>025-260500-

NORTHERN UTAH

CITY           SKY/WX    TMP DP  RH WIND       PRES   REMARKS
BRIGHAM CITY   PTCLDY    56  33  41 CALM      30.12S
HILL AFB       MOCLDY    60  23  24 CALM      30.12R
LOGAN          PTCLDY    55  34  45 CALM      30.12R
OGDEN          PTCLDY    58  26  29 NE3       30.11R
SALT LAKE CITY PTCLDY    59  36  42 SW5       30.09R
TOOELE VALLEY  PTCLDY    50  36  57 SE6       30.10R
WENDOVER       CLEAR     62  24  23 N7        30.10R
HEBER CITY       N/A     45  27  49 E6        30.13S
WEST JORDAN    MOCLDY    56  34  43 W6        30.12R

$$

UTZ011>015-024>027-260500-

CENTRAL/NORTHEAST UTAH

CITY           SKY/WX    TMP DP  RH WIND       PRES   REMARKS
PROVO AIRPORT  MOCLDY    59  35  40 N6        30.11R
MOAB/CANYONLAN MOCLDY    54   7  15 W7        30.06R
DELTA          CLEAR     59  30  33 NE3       30.12R
PRICE          MOCLDY    59  15  18 VRB3      30.13R
RICHFIELD      CLEAR     57  28  33 CALM      30.14R
ROOSEVELT      MOCLDY    55  21  26 SW9       30.09F
VERNAL         MOCLDY    51  24  34 N9        30.09R

$$

UTZ013>016-019>022-027-260500-

SOUTHERN UTAH

CITY           SKY/WX    TMP DP  RH WIND       PRES   REMARKS
BRYCE CANYON   CLEAR     43  19  38 W5        30.26R
CEDAR CITY     PTCLDY    60  28  29 SE7       30.12R
MILFORD        CLEAR     55  31  39 NW8       30.09R
ST GEORGE      PTCLDY    76  23  14 SE5       29.97R
HANKSVILLE     CLEAR     55   7  14 CALM      30.08S
KANAB          CLEAR     63  28  27 CALM      30.13R
BLANDING         N/A     49   5  16 NW8       30.22R

$$

REGIONAL REPORTS     COLORADO/ARIZONA

CITY           SKY/WX    TMP DP  RH WIND       PRES   REMARKS
CRAIG, CO      CLEAR     43  24  47 CALM      30.11R
GRAND JUNCTION PTCLDY    54  10  17 VRB3      30.08S
RIFLE, CO      CLEAR     51  14  22 S8        30.10R
MONTROSE, CO   MOCLDY    51  16  24 SE10      30.16R
CORTEZ, CO     PTCLDY    45   7  21 CALM      30.16R
COLORADO CITY    N/A     61  28  29 CALM      30.13R
PAGE, AZ       PTCLDY    68  21  16 CALM      30.05R
GRAND CANYON   PTCLDY    51  16  24 E3        30.21S
KINGMAN, AZ    CLEAR     71  19  14 S6        30.02R
FLAGSTAFF, AZ  CLEAR     50  18  28 SW3       30.24R

$$

REGIONAL REPORTS    NEVADA/IDAHO/WYOMING

CITY           SKY/WX    TMP DP  RH WIND       PRES   REMARKS
LAS VEGAS, NV  MOCLDY    87  23   9 CALM      29.91R
ELY, NY        CLEAR     57  18  21 N10       30.19R
ELKO, NV       CLEAR     58  29  33 CALM      30.15R
POCATELLO, ID  CLEAR     55  29  36 SW9       30.12R
BURLEY, ID     CLEAR     50  28  42 S10G18    30.10R
FORT BRIDGER,  CLEAR     48  18  29 W13       30.22R
EVANSTON, WY   PTCLDY    47  19  33 W14       30.21R
ROCK SPRINGS,  CLEAR     51  19  28 W22G28    30.15R
KEMMERER, WY   PTCLDY    46  23  39 W10G21    30.20R

$$



USA.gov is the U.S. government's official web portal to all federal, state and local government web resources and services.